Temperature
24 23 23 24 27 28 28 30 31 31 31 31 31 31 30 29 27 25 24 24 23 22 22 21 21 21 20 20 20 20 19 19 19 19 19 19 19 19 19 18 18 18 18 18 18 18 18 18 18
24 23 24 27 28 28 28 30 31 31 31 31 30 30 29 28 27 25 24 23 22 22 21 21 21 21 20 20 20 19 19 19 19 19 19 19 19 18 18 18 18 18 18 18 18 18 18 18 18
24 24 26 29 29 29 29 30 31 31 31 30 30 30 29 27 26 25 24 23 22 21 21 21 21 21 20 20 20 19 19 19 19 19 19 19 18 18 18 18 18 18 18 18 18 18 18 18 18
23 26 28 29 30 31 31 31 31 31 31 30 30 29 27 26 25 24 23 23 22 21 21 21 20 20 20 20 19 19 19 19 19 19 19 18 18 18 18 18 18 18 18 18 18 18 18 18 18
25 28 29 29 30 32 32 31 31 31 31 30 30 28 26 25 24 24 23 23 22 21 20 21 20 20 20 19 19 19 19 19 19 19 18 18 18 18 18 18 18 18 18 18 18 18 18 18 18
27 30 29 29 30 32 32 31 31 31 31 30 29 28 26 24 24 23 23 23 22 21 21 21 20 20 20 19 19 19 19 19 19 18 18 18 18 18 18 18 18 18 18 18 18 18 18 18 18
28 29 29 30 30 31 31 31 31 31 31 30 29 28 25 24 24 24 23 23 22 21 21 21 20 20 19 19 19 19 19 19 19 18 18 18 18 18 18 18 18 18 18 18 18 18 18 18 18
29 30 29 30 30 30 31 31 30 30 30 30 29 28 25 24 24 23 23 22 22 21 20 20 20 20 19 19 19 19 19 19 18 18 18 18 18 18 18 17 17 17 18 18 18 18 18 18 18
29 29 29 30 30 30 31 30 30 30 30 29 28 27 25 24 23 23 23 22 22 21 21 20 20 19 19 19 19 19 19 18 18 18 18 18 17 17 17 17 17 17 17 17 17 18 18 18 18
30 28 29 30 31 30 30 30 30 30 30 29 28 26 25 24 23 23 22 22 21 21 20 20 20 19 19 19 19 18 18 18 18 18 18 18 17 17 17 17 17 17 17 17 17 17 17 17 17
30 30 30 31 30 30 30 30 30 30 29 28 27 26 25 24 23 23 23 22 21 21 20 20 19 19 19 18 18 18 18 18 18 17 17 17 17 17 17 17 17 17 17 17 17 17 17 17 17
30 31 31 30 29 29 29 30 29 29 29 28 27 26 24 24 24 23 23 22 21 20 20 20 19 19 18 18 18 18 18 18 18 17 17 17 17 17 17 17 17 17 17 17 17 17 17 17 17
30 31 30 30 29 29 29 30 29 29 28 27 27 26 25 24 24 23 22 22 21 20 20 19 19 18 18 18 18 18 18 18 17 17 17 17 17 17 17 16 17 16 16 16 16 16 16 17 17
30 30 30 30 30 30 30 30 29 29 28 27 26 26 25 24 23 23 22 21 21 20 20 19 19 18 18 18 18 18 17 17 17 17 17 17 17 16 16 16 16 16 16 16 16 16 16 16 16
30 30 30 30 30 30 30 29 29 28 27 27 26 25 25 24 23 22 22 21 20 20 20 19 19 18 18 18 18 17 17 17 17 17 17 17 16 16 16 16 16 16 16 16 16 16 16 16 16
30 29 28 30 31 30 29 28 29 28 27 27 26 25 25 24 23 22 22 21 20 20 19 19 19 18 18 17 17 17 17 17 17 16 16 16 16 16 16 16 16 16 15 15 16 16 16 16 16
28 27 28 29 30 30 29 28 29 28 27 27 26 25 25 24 23 22 22 21 20 20 19 19 18 18 18 17 17 17 17 17 17 16 16 16 16 16 15 15 15 15 15 15 15 16 16 16 16
28 28 28 28 29 29 28 28 28 27 27 26 26 25 24 24 23 22 21 21 20 19 19 18 18 18 18 17 17 17 17 17 16 16 16 16 16 15 15 15 15 15 15 15 15 15 15 15 15
29 28 28 28 29 29 28 28 27 27 27 26 26 25 24 24 23 22 21 20 20 19 18 18 18 18 17 17 17 17 17 16 16 16 16 16 15 15 15 15 15 15 15 15 15 15 15 15 15
29 28 28 29 29 29 28 28 28 28 27 27 26 25 24 23 22 22 21 20 20 19 18 18 18 18 17 17 17 17 16 16 16 16 16 15 15 15 15 15 15 15 15 15 15 15 15 15 15
29 29 29 29 29 29 29 28 28 28 27 26 25 25 24 23 22 21 21 20 20 19 18 18 18 17 17 17 16 16 16 16 16 16 15 15 15 15 15 15 15 15 14 14 14 14 14 14 15
29 30 30 29 28 28 28 27 27 27 27 26 25 24 24 23 22 21 21 20 19 19 18 18 17 17 17 17 16 16 16 16 16 15 15 15 15 15 15 15 14 14 14 14 14 14 14 14 14
30 30 30 29 28 28 28 27 27 27 26 26 25 25 24 23 22 21 21 20 19 19 18 18 17 17 17 17 16 16 16 15 15 15 15 15 15 15 15 14 14 14 14 14 14 14 14 14 14
30 30 29 29 28 26 28 27 25 26 25 25 25 24 23 23 22 21 20 20 19 19 18 17 17 17 16 16 16 16 15 15 15 15 15 15 14 15 14 14 14 14 14 14 14 14 14 14 14
30 28 27 26 26 26 28 27 25 26 26 26 25 25 23 22 22 21 20 19 19 18 18 17 17 16 16 16 16 16 15 15 15 15 15 14 14 14 14 14 14 14 14 13 13 13 13 13 13
29 28 26 25 25 26 27 26 25 27 26 26 25 25 23 22 21 21 20 19 18 18 17 17 16 16 16 16 15 15 15 15 15 15 14 14 14 14 14 14 14 14 13 13 13 13 13 13 13
29 28 29 27 26 26 26 25 25 26 26 26 25 24 23 22 21 20 19 19 18 17 17 16 16 16 15 15 15 15 15 15 14 14 14 14 14 14 14 14 14 14 13 13 13 13 13 13 13
29 29 27 26 25 25 25 25 24 25 25 25 24 24 23 22 21 20 19 18 18 17 16 16 16 15 15 15 15 15 15 14 14 14 14 14 14 14 14 14 13 13 13 13 13 13 13 13 13
29 28 27 27 26 25 24 24 25 24 25 24 24 23 22 21 20 20 19 18 17 17 17 16 16 15 15 15 15 15 14 14 14 14 14 14 13 13 13 13 13 13 13 13 12 12 12 13 12
29 29 28 26 26 26 25 24 25 25 25 24 24 23 22 21 20 19 18 18 17 17 16 16 16 15 15 15 14 14 14 14 14 14 13 13 13 13 13 13 13 13 13 13 12 12 12 12 12
Wind_Speed
10 12 11 7 6 6 5 3 5 6 8 9 8 8 10 11 9 7 8 12 15 15 14 15 14 13 11 9 9 9 8 8 8 7 7 7 7 7 7 7 7 8 8 8 7 7 6 6 6
11 13 10 7 7 4 2 2 5 6 7 7 7 7 9 11 10 9 10 11 14 14 13 13 14 13 11 10 9 9 8 8 7 7 7 7 7 7 7 6 6 7 7 7 6 6 6 5 5
12 16 8 7 8 4 1 3 5 6 6 5 6 7 8 8 9 8 10 11 12 13 14 15 14 13 11 10 9 9 8 8 7 7 6 6 6 7 6 6 6 7 7 7 6 6 5 5 4
8 9 7 8 9 5 2 4 3 5 4 5 5 7 8 7 7 9 11 11 12 14 14 15 14 12 11 10 9 8 8 7 7 6 6 6 6 6 6 6 6 6 6 6 5 5 5 4 3
11 8 10 11 8 2 4 4 2 4 4 5 6 7 8 9 11 10 9 10 12 13 14 15 14 12 10 9 8 8 7 7 6 6 6 6 5 5 5 5 5 6 6 6 5 5 5 4 4
9 9 10 9 6 2 3 2 1 3 3 4 5 7 7 8 9 8 8 8 10 12 13 14 14 13 10 9 8 7 7 6 6 6 6 6 6 5 5 5 5 5 6 6 5 5 5 5 5
11 11 12 11 5 2 3 3 2 4 4 4 4 5 7 8 8 8 8 9 10 11 12 12 12 12 11 9 8 8 7 7 7 7 7 6 5 5 6 6 6 6 6 6 6 6 6 5 5
11 11 14 11 5 0 2 2 2 3 3 4 3 4 7 8 8 8 8 8 9 9 10 12 11 11 10 10 10 10 9 8 8 8 8 7 6 6 7 7 8 7 6 6 6 7 7 6 6
14 12 12 9 5 2 2 1 1 1 2 3 5 7 10 12 9 8 7 7 7 7 7 9 9 8 8 9 10 10 9 8 8 8 9 8 6 6 7 8 9 9 8 8 8 8 8 7 8
11 11 11 7 5 5 2 3 2 1 1 3 7 9 12 11 9 8 7 7 7 7 6 6 7 6 5 5 8 7 7 8 7 6 6 6 4 5 5 7 10 10 9 9 10 9 9 9 8
13 13 10 6 5 6 5 4 2 2 1 2 5 9 10 9 8 7 7 7 7 6 5 5 6 5 4 3 4 3 3 5 5 5 5 4 3 3 3 4 6 6 8 8 7 9 8 8 6
13 13 10 7 3 5 6 4 3 2 1 3 5 7 9 8 8 7 7 7 7 7 5 5 6 5 3 3 2 2 2 2 2 4 4 3 2 1 2 2 2 3 3 3 4 4 4 5 5
13 11 10 7 4 6 6 5 4 2 2 3 5 5 6 6 6 7 7 7 7 6 6 6 5 5 4 3 1 2 1 2 2 3 4 3 1 1 1 1 1 2 2 2 1 2 2 2 3
10 10 10 7 7 6 7 7 5 3 4 5 6 6 4 5 6 6 7 7 7 7 6 5 6 6 4 2 1 1 1 2 3 2 3 3 2 1 0 1 1 1 1 1 2 2 2 2 2
10 11 11 9 9 7 7 7 5 3 4 5 5 6 5 4 5 6 7 7 7 7 6 5 6 6 5 3 2 1 1 2 2 2 3 3 3 2 1 1 1 1 2 2 2 2 2 3 3
11 12 11 11 9 7 7 7 3 5 4 5 6 6 5 5 5 7 8 7 7 7 6 4 5 6 5 3 1 1 1 2 2 2 3 3 2 1 1 1 1 1 2 2 2 2 2 2 2
11 11 12 10 8 6 8 6 3 4 4 5 5 5 5 6 5 6 7 8 7 7 7 5 4 5 4 3 2 1 1 1 2 2 2 3 2 2 1 1 1 2 2 2 2 1 1 2 2
8 9 10 9 6 6 6 5 3 4 4 4 4 5 5 6 6 6 7 8 8 7 7 5 5 4 4 3 2 2 2 2 2 2 2 3 2 1 1 1 0 2 2 1 1 1 2 2 2
9 10 11 8 7 7 7 6 5 5 5 4 4 5 5 6 7 7 8 8 8 8 7 5 5 4 3 2 2 2 2 2 2 2 2 2 1 1 1 1 1 1 2 2 2 1 2 3 2
11 12 11 8 6 6 7 6 6 7 7 6 5 5 6 6 7 7 7 8 8 8 6 6 4 4 3 3 2 2 2 1 1 1 2 2 2 1 2 1 1 1 1 2 3 2 2 3 2
13 12 10 8 7 8 7 7 6 7 6 6 5 5 5 7 7 7 6 6 7 7 6 5 4 3 3 2 2 2 2 1 1 1 1 0 2 2 2 1 1 1 2 2 2 2 2 2 2
11 10 9 9 9 8 8 7 5 5 7 7 7 6 6 7 8 8 7 6 5 6 6 5 4 3 3 2 2 3 2 2 1 1 1 1 2 2 2 2 2 1 2 1 2 0 1 2 2
10 8 9 11 10 11 9 7 4 5 5 6 6 6 6 6 7 7 7 6 5 5 6 6 5 3 3 2 2 2 2 1 1 1 1 2 2 2 2 2 1 1 2 1 1 1 1 1 2
9 10 11 10 10 11 10 7 2 3 5 5 7 7 7 7 6 7 7 6 5 4 4 6 5 3 3 3 3 2 1 1 1 1 2 2 1 2 2 2 1 1 1 1 2 1 2 2 2
10 9 7 7 8 9 6 5 3 4 5 6 7 8 8 8 7 7 6 5 5 4 4 5 5 3 2 2 2 1 2 2 2 2 2 1 1 1 1 1 1 1 2 2 2 2 2 2 2
10 10 8 7 7 6 5 3 4 8 7 7 7 8 9 8 7 7 6 6 5 4 4 4 4 3 3 2 1 0 0 1 1 1 1 2 1 0 1 1 1 1 2 2 1 2 2 2 2
10 9 8 8 10 9 3 3 5 8 8 8 7 7 7 7 6 7 7 6 5 4 4 3 3 2 2 2 2 1 1 1 1 1 1 1 1 0 1 1 0 1 1 0 1 2 2 1 2
10 7 5 7 7 8 5 4 5 9 7 7 7 6 6 6 6 6 7 6 5 5 4 3 3 3 2 2 2 2 1 0 0 0 1 1 1 1 0 1 1 1 1 0 1 2 1 1 1
9 9 7 7 7 7 6 1 4 5 5 6 6 6 6 6 6 6 7 6 6 5 4 4 3 3 2 2 2 2 1 1 1 0 1 1 1 1 1 0 1 1 1 0 1 2 2 1 2
10 9 8 7 7 7 6 1 4 7 7 7 6 6 6 7 7 7 7 7 6 5 4 4 3 3 2 3 3 2 2 1 1 1 1 1 1 1 1 1 1 1 1 0 1 2 2 2 2
Wind_Direction
245 248 239 248 246 246 281 346 50 50 55 54 39 40 51 45 50 85 106 99 105 111 120 119 116 114 113 114 115 118 119 118 117 117 117 117 116 117 116 113 114 114 116 115 113 112 111 110 106
262 254 243 245 253 256 289 5 62 62 62 64 56 50 63 64 75 98 98 102 110 118 125 122 122 118 115 114 114 118 121 121 119 120 122 123 123 125 126 126 122 119 121 120 118 116 116 115 116
263 260 255 244 249 252 268 61 62 76 65 64 64 58 58 69 81 97 106 112 111 117 119 122 126 122 119 117 116 121 122 122 122 122 126 127 128 131 134 135 131 132 134 134 134 131 127 125 124
257 246 236 253 257 243 138 87 76 87 70 68 66 76 76 64 82 98 109 112 114 118 122 126 126 125 123 122 122 124 125 127 129 129 130 129 132 135 138 141 145 146 144 143 142 141 137 137 146
245 255 250 261 266 269 72 62 57 86 72 60 72 86 82 74 88 99 109 117 121 121 126 131 132 135 133 133 131 132 134 137 138 137 137 140 140 143 147 149 149 152 157 156 158 159 157 160 178
252 253 260 264 271 305 70 56 8 88 82 73 84 96 97 101 102 115 113 113 118 122 124 131 137 137 138 136 140 142 143 146 149 148 152 155 159 161 160 159 159 165 172 172 175 181 182 182 192
257 271 272 273 269 279 53 30 15 33 57 67 68 96 112 118 120 118 114 113 114 120 127 138 142 143 146 146 152 152 153 156 161 165 168 170 173 178 178 174 169 174 178 184 192 197 196 198 203
258 275 284 289 282 230 40 10 83 42 44 74 67 89 123 124 120 118 115 114 116 124 138 144 147 150 157 160 163 165 166 170 174 178 179 181 185 188 190 188 180 182 185 189 199 204 206 210 216
255 266 275 285 304 356 62 323 57 112 105 88 80 85 117 128 133 128 125 125 119 121 135 135 143 152 159 160 162 169 176 181 184 185 187 193 195 193 191 192 188 192 195 200 208 210 212 212 221
243 256 266 288 321 337 333 295 312 319 61 85 97 106 124 135 143 144 141 135 130 134 139 135 137 133 140 149 154 174 175 173 190 180 176 193 203 206 194 184 190 195 203 210 214 216 216 220 221
244 254 273 296 346 325 301 289 299 343 23 67 113 125 133 145 156 156 147 142 137 138 136 129 129 131 134 135 151 156 163 165 187 171 175 189 198 200 159 158 174 192 207 212 207 214 219 220 224
247 262 278 287 324 292 278 283 290 301 51 87 113 125 146 164 164 161 149 144 138 139 136 131 124 122 111 105 132 164 143 155 162 156 167 174 187 181 141 167 173 195 206 207 206 216 226 232 236
252 263 270 283 277 260 266 268 258 248 143 131 130 130 145 160 160 145 139 133 131 133 138 128 121 121 122 115 170 126 134 151 150 149 164 169 179 158 157 172 169 211 214 203 241 228 244 260 248
259 265 264 257 258 250 253 255 251 219 157 137 138 141 155 158 148 141 134 129 135 138 137 134 130 127 120 130 152 151 173 147 144 133 126 130 114 98 56 193 195 220 220 205 246 240 235 258 261
265 263 262 251 238 241 251 255 235 171 147 146 148 141 145 149 143 145 138 139 139 135 134 142 146 132 137 150 178 176 169 128 110 114 111 106 112 110 151 238 222 223 227 219 220 243 230 250 255
263 257 256 252 235 227 237 261 220 152 160 162 157 147 142 141 150 146 142 137 133 134 135 146 154 140 144 144 165 190 125 112 121 128 121 110 113 146 203 212 223 238 233 221 217 217 238 253 260
249 254 258 257 238 236 236 253 186 175 177 173 165 156 151 144 146 137 139 137 131 129 129 127 124 130 139 143 162 163 118 113 129 125 121 127 146 179 223 212 205 253 240 226 247 192 241 262 268
247 255 261 263 249 249 258 257 224 194 187 194 167 151 160 150 150 141 136 137 129 128 128 128 128 129 140 149 149 149 139 139 136 130 125 134 166 181 236 240 203 268 260 245 256 248 243 250 252
260 257 258 261 256 254 254 252 227 188 184 176 155 154 159 137 135 139 141 137 134 131 131 129 134 137 149 163 171 166 166 168 161 153 126 136 164 192 232 273 253 240 248 259 266 265 257 252 249
251 262 261 263 253 254 251 253 231 200 184 176 167 155 153 142 141 138 143 144 140 140 140 139 145 150 164 166 164 160 156 176 154 115 134 155 181 219 226 209 238 244 248 244 241 244 251 263 261
249 255 261 262 261 249 256 257 241 195 174 156 158 154 145 149 148 145 143 142 142 142 145 148 146 148 153 137 141 140 135 136 155 160 148 173 219 218 233 210 243 262 262 249 233 234 253 278 274
256 256 266 262 260 261 249 262 218 192 166 163 163 154 151 150 148 148 145 138 134 144 143 135 132 135 130 142 161 170 174 184 193 208 183 195 236 231 230 230 227 226 258 278 260 220 264 271 279
260 266 264 266 266 269 254 258 234 175 168 174 160 151 150 138 136 141 141 139 138 139 142 135 127 132 142 162 157 181 185 184 189 192 203 212 240 239 224 221 219 222 243 253 282 296 271 275 283
258 263 262 262 267 261 255 246 243 175 170 177 157 149 145 138 137 134 133 127 123 122 122 128 129 136 148 157 163 178 183 189 233 253 244 234 232 240 222 207 203 226 231 237 242 247 252 257 293
245 252 261 256 248 253 250 231 180 144 149 151 144 144 139 136 135 135 133 128 117 108 95 104 130 135 130 137 159 189 202 217 231 254 268 259 235 227 214 225 206 219 222 226 231 230 245 245 252
240 245 245 262 268 270 256 221 151 136 131 125 126 133 136 141 144 141 131 123 119 109 99 102 106 122 136 145 150 193 249 244 270 301 302 299 303 256 184 199 220 225 223 238 237 259 247 241 249
243 245 253 263 271 274 271 140 133 138 131 126 122 124 132 137 139 136 130 127 121 110 94 95 100 104 125 146 153 165 164 244 297 302 287 301 328 313 106 184 222 228 228 223 235 265 276 265 253
243 252 267 262 273 274 252 219 179 160 145 134 128 124 129 132 135 132 131 125 118 113 111 103 106 105 110 147 189 147 144 223 228 269 301 309 337 11 55 149 196 234 251 215 254 288 278 269 271
233 238 243 256 261 270 280 267 125 131 141 136 136 134 128 126 122 127 129 121 116 109 111 103 102 101 106 99 82 75 73 39 50 37 356 18 19 14 346 332 321 276 239 225 245 274 274 244 273
242 244 243 250 263 271 276 244 117 135 132 127 129 124 118 117 118 119 122 120 116 110 102 97 98 105 101 90 74 70 78 50 25 28 29 36 54 32 330 315 296 286 286 259 260 283 308 296 280
Height
1487 1487 1487 1490 1486 1482 1479 1465 1458 1461 1461 1465 1466 1467 1470 1474 1481 1492 1492 1492 1492 1492 1494 1495 1497 1498 1500 1501 1502 1503 1505 1506 1508 1509 1510 1511 1512 1513 1515 1516 1517 1518 1520 1522 1523 1524 1526 1528 1529
1487 1487 1490 1487 1483 1487 1479 1464 1463 1462 1464 1466 1468 1470 1472 1478 1483 1488 1491 1492 1493 1493 1494 1496 1497 1499 1500 1501 1503 1504 1505 1507 1508 1509 1511 1512 1513 1514 1515 1517 1518 1519 1521 1522 1524 1525 1527 1528 1529
1486 1487 1488 1479 1478 1479 1473 1462 1462 1463 1466 1467 1469 1472 1476 1482 1485 1489 1491 1493 1494 1494 1495 1496 1498 1499 1501 1502 1503 1505 1506 1507 1509 1510 1511 1512 1513 1515 1516 1517 1518 1520 1521 1522 1524 1525 1527 1528 1530
1487 1487 1483 1476 1473 1463 1459 1459 1460 1463 1466 1468 1470 1474 1480 1485 1487 1489 1491 1493 1494 1495 1495 1496 1498 1500 1502 1503 1504 1505 1506 1507 1509 1510 1511 1512 1514 1515 1516 1517 1519 1520 1521 1523 1524 1525 1527 1528 1529
1488 1484 1478 1475 1466 1457 1455 1459 1461 1463 1466 1469 1472 1477 1482 1486 1487 1489 1491 1493 1494 1495 1495 1497 1499 1500 1502 1503 1504 1505 1507 1508 1509 1510 1511 1512 1514 1515 1516 1517 1519 1520 1521 1522 1523 1525 1526 1528 1529
1485 1477 1479 1477 1467 1457 1456 1460 1462 1463 1466 1471 1473 1477 1484 1487 1489 1490 1491 1493 1495 1496 1496 1497 1499 1500 1502 1503 1505 1506 1507 1508 1509 1510 1511 1512 1514 1515 1516 1517 1518 1520 1521 1522 1523 1524 1526 1527 1528
1483 1475 1474 1468 1465 1461 1459 1462 1463 1465 1467 1471 1473 1477 1484 1488 1489 1491 1492 1494 1495 1496 1496 1497 1499 1500 1502 1503 1505 1506 1507 1508 1509 1510 1511 1512 1513 1515 1516 1517 1518 1519 1520 1521 1522 1524 1525 1526 1528
1479 1475 1472 1467 1466 1463 1461 1463 1466 1467 1469 1472 1474 1477 1483 1487 1489 1491 1492 1494 1495 1496 1496 1498 1499 1500 1501 1502 1504 1505 1506 1508 1509 1509 1510 1511 1512 1514 1515 1516 1517 1519 1520 1521 1522 1523 1524 1525 1527
1477 1477 1476 1468 1465 1463 1462 1465 1466 1468 1470 1472 1475 1478 1482 1486 1489 1490 1492 1494 1495 1496 1497 1498 1499 1500 1501 1502 1503 1504 1506 1507 1508 1509 1510 1511 1512 1513 1514 1515 1517 1518 1519 1520 1521 1522 1523 1524 1526
1473 1477 1471 1463 1461 1463 1464 1465 1467 1468 1470 1473 1476 1480 1483 1486 1488 1490 1492 1493 1494 1496 1497 1498 1499 1500 1501 1502 1502 1504 1505 1506 1507 1508 1509 1510 1511 1513 1514 1515 1516 1517 1518 1519 1520 1521 1522 1523 1524
1469 1468 1463 1462 1461 1464 1465 1466 1468 1468 1471 1474 1477 1480 1483 1486 1488 1490 1491 1493 1494 1496 1497 1498 1499 1499 1501 1501 1502 1503 1504 1505 1507 1508 1508 1510 1511 1512 1513 1514 1515 1515 1517 1518 1519 1520 1521 1522 1523
1466 1463 1462 1463 1462 1465 1467 1467 1468 1470 1472 1474 1477 1479 1482 1485 1487 1489 1491 1492 1494 1496 1497 1498 1498 1499 1500 1501 1502 1503 1503 1504 1506 1507 1508 1509 1510 1511 1512 1512 1513 1514 1516 1517 1518 1519 1520 1521 1522
1463 1462 1462 1463 1464 1466 1466 1466 1468 1470 1472 1474 1476 1479 1480 1484 1487 1489 1490 1492 1494 1495 1496 1498 1498 1498 1499 1500 1501 1502 1503 1504 1505 1506 1507 1508 1509 1510 1511 1511 1512 1513 1514 1515 1515 1517 1518 1519 1521
1463 1462 1461 1462 1462 1463 1464 1465 1466 1469 1470 1472 1475 1478 1480 1482 1485 1487 1490 1491 1493 1495 1496 1497 1497 1497 1498 1500 1500 1501 1502 1503 1504 1505 1506 1506 1507 1508 1509 1510 1511 1512 1513 1513 1515 1515 1516 1517 1519
1462 1462 1461 1459 1459 1461 1463 1465 1464 1466 1469 1471 1474 1477 1480 1482 1484 1486 1489 1491 1493 1494 1495 1496 1496 1497 1498 1499 1500 1501 1502 1502 1503 1504 1505 1505 1506 1507 1507 1508 1509 1510 1511 1512 1513 1514 1515 1516 1517
1462 1463 1466 1458 1455 1457 1464 1470 1462 1465 1468 1470 1473 1476 1479 1481 1483 1486 1488 1490 1492 1493 1494 1495 1496 1496 1497 1498 1499 1500 1501 1501 1502 1503 1504 1504 1505 1505 1506 1506 1507 1508 1509 1510 1511 1512 1513 1514 1515
1465 1470 1467 1459 1453 1455 1460 1465 1461 1465 1467 1469 1471 1474 1478 1480 1482 1484 1486 1489 1491 1492 1493 1494 1495 1496 1496 1497 1498 1499 1500 1501 1501 1502 1502 1503 1503 1504 1504 1505 1505 1506 1507 1508 1509 1510 1511 1512 1512
1470 1468 1465 1463 1454 1455 1459 1461 1459 1463 1465 1467 1469 1473 1476 1479 1481 1483 1486 1488 1490 1491 1492 1494 1494 1495 1495 1496 1497 1498 1499 1500 1501 1501 1501 1502 1502 1503 1503 1503 1504 1505 1505 1506 1507 1508 1509 1510 1510
1458 1462 1464 1459 1453 1456 1459 1460 1460 1461 1463 1465 1468 1472 1475 1478 1480 1483 1486 1488 1490 1491 1492 1493 1493 1494 1494 1495 1496 1497 1498 1499 1500 1500 1500 1501 1501 1501 1501 1502 1502 1502 1503 1504 1504 1505 1506 1507 1508
1457 1460 1459 1455 1450 1453 1457 1457 1455 1457 1460 1464 1468 1470 1474 1477 1479 1483 1486 1488 1489 1490 1491 1492 1492 1493 1494 1494 1495 1496 1497 1498 1499 1500 1499 1499 1500 1500 1500 1500 1500 1500 1501 1502 1502 1503 1503 1504 1505
1454 1456 1456 1456 1452 1450 1454 1460 1456 1455 1459 1463 1467 1470 1473 1476 1479 1481 1485 1487 1489 1490 1491 1492 1492 1492 1493 1493 1494 1495 1496 1497 1498 1498 1498 1498 1498 1499 1499 1498 1498 1498 1499 1499 1500 1501 1501 1502 1502
1454 1446 1447 1451 1457 1459 1456 1470 1460 1455 1458 1462 1466 1469 1472 1475 1478 1481 1484 1486 1488 1489 1490 1491 1491 1491 1492 1492 1493 1494 1495 1496 1497 1497 1497 1497 1497 1497 1497 1497 1496 1496 1497 1497 1498 1499 1499 1500 1500
1446 1443 1446 1449 1453 1458 1455 1465 1463 1455 1462 1462 1465 1468 1471 1474 1477 1480 1483 1486 1488 1489 1489 1489 1490 1491 1491 1492 1492 1493 1494 1494 1495 1496 1495 1495 1495 1495 1495 1495 1495 1495 1495 1496 1496 1496 1497 1497 1498
1441 1444 1446 1448 1453 1469 1457 1463 1469 1460 1462 1463 1464 1467 1471 1475 1477 1480 1483 1485 1487 1488 1488 1489 1489 1490 1490 1490 1491 1492 1492 1493 1494 1494 1494 1494 1494 1493 1493 1493 1493 1493 1493 1493 1494 1494 1494 1495 1495
1442 1453 1467 1472 1473 1469 1450 1458 1467 1456 1456 1459 1462 1466 1471 1475 1478 1481 1483 1485 1486 1487 1488 1488 1489 1489 1489 1489 1490 1490 1491 1492 1492 1492 1493 1493 1493 1492 1492 1492 1491 1491 1492 1492 1492 1492 1492 1493 1493
1443 1449 1469 1482 1478 1464 1453 1463 1461 1453 1456 1459 1462 1466 1471 1475 1478 1480 1483 1485 1486 1487 1488 1488 1488 1489 1489 1489 1489 1489 1490 1490 1491 1491 1492 1492 1492 1491 1491 1490 1490 1490 1490 1490 1490 1490 1491 1491 1491
1443 1445 1443 1458 1460 1465 1461 1461 1461 1454 1457 1460 1463 1467 1471 1475 1478 1480 1482 1484 1486 1487 1487 1488 1488 1488 1488 1488 1488 1488 1488 1489 1489 1490 1490 1490 1490 1490 1489 1489 1489 1489 1488 1488 1488 1488 1489 1489 1489
1435 1440 1448 1458 1472 1475 1467 1465 1465 1459 1459 1460 1463 1467 1471 1475 1478 1480 1482 1484 1485 1487 1487 1488 1488 1488 1488 1488 1488 1488 1488 1488 1488 1488 1489 1489 1489 1488 1488 1488 1488 1487 1487 1487 1487 1487 1487 1487 1487
1438 1442 1445 1451 1455 1470 1476 1472 1452 1458 1458 1460 1463 1467 1471 1475 1477 1480 1482 1484 1485 1486 1487 1488 1488 1488 1488 1488 1487 1487 1487 1487 1487 1487 1487 1487 1487 1487 1487 1487 1487 1486 1486 1486 1486 1486 1486 1486 1486
1430 1435 1440 1456 1458 1456 1465 1472 1451 1454 1456 1460 1463 1468 1471 1475 1477 1479 1482 1483 1485 1486 1488 1488 1488 1488 1488 1487 1487 1486 1486 1486 1486 1486 1486 1486 1486 1486 1486 1486 1485 1485 1485 1485 1485 1485 1485 1484 1484